Voltar ao catálogo

SL-12 R/B(2)

AtivoGEO
NORAD 19020·ROCKET BODY·🇷🇺 Russia

Lançado Mar 31, 1988 de Baikonur Cosmodrome

Loading…

TLE

AtualizadoSource: Space-Track

Época: Aug 28, 2026, 19:59 UTC

1 19020U 88028D   26240.83279073 -.00000067  00000-0  00000+0 0  9994
2 19020  12.6284 330.3026 0018986 134.5110 215.3561  0.97783148137170

Acompanhe SL-12 R/B(2) em tempo real com AllMySat

Download on the App Store